Location: Unspecified
(0.0000°N, 0.0000°E)
Time: 02:51:36
(UTC+00:00)

Explorer 11/Cluster Stage 4 - Visible Passes

Search period start: 28 July 2016 00:00
Search period end: 07 August 2016 00:00
Orbit: 467 x 1265 km, 28.8° (Epoch: 26 July)

Date Brightness Start Highest point End Pass type
(mag) Time Alt. Az. Time Alt. Az. Time Alt. Az.
28 Jul 8.6 20:09:38 10° SW 20:12:38 21° SSW 20:12:38 21° SSW visible
29 Jul 8.0 19:59:26 10° SW 20:04:17 32° S 20:04:17 32° S visible
30 Jul 7.4 19:49:17 10° SW 19:56:03 46° SSE 19:56:03 46° SSE visible
31 Jul 7.1 19:39:13 10° SW 19:46:44 57° SSE 19:47:55 50° ESE visible
31 Jul 9.6 21:29:29 10° W 21:30:13 13° W 21:30:13 13° W visible
01 Aug 7.1 19:29:11 10° SW 19:37:00 69° SSE 19:39:53 37° ENE visible
01 Aug 9.2 21:19:53 10° W 21:22:11 19° W 21:22:11 19° W visible
02 Aug 7.2 19:19:13 10° WSW 19:27:14 82° SSE 19:31:55 22° ENE visible
02 Aug 9.0 21:10:21 10° W 21:14:12 24° WNW 21:14:12 24° WNW visible
03 Aug 7.3 19:09:18 10° WSW 19:17:27 84° NNW 19:23:56 12° ENE visible
03 Aug 8.9 21:00:54 10° W 21:06:13 24° NW 21:06:13 24° NW visible
04 Aug 7.6 18:59:26 10° WSW 19:07:37 72° NNW 19:14:41 10° NE visible
04 Aug 9.0 20:51:32 10° WNW 20:56:50 21° NNW 20:58:12 20° NNW visible
05 Aug 7.9 18:49:39 10° WSW 18:57:47 61° NNW 19:04:58 10° NE visible
05 Aug 9.3 20:42:17 10° WNW 20:47:08 18° NNW 20:50:06 14° N visible
06 Aug 8.3 18:39:56 10° WSW 18:47:56 52° NNW 18:55:11 10° NE visible
06 Aug 9.5 20:33:08 10° WNW 20:37:28 16° NNW 20:41:28 10° N visible
